Tracking 19283 objects as of 18-Nov-2018
HD Live streaming from Space Station
objects crossing your sky now

COSMOS 1321

Track COSMOS 1321 now!
10-day predictions
COSMOS 1321 is classified as:


NORAD ID: 12976
Int'l Code: 1981-116B
Perigee: 1,487.9 km
Apogee: 1,639.0 km
Inclination: 74.0 °
Period: 117.2 minutes
Semi major axis: 7934 km
RCS: 0.6999 m2 (medium)
Launch date: November 28, 1981
Source: Commonwealth of Independent States (former USSR) (CIS)
Launch site: PLESETSK MISSILE AND SPACE COMPLEX (PKMTR)
aabbcc
Your satellite tracking list
Your tracking list is empty




NASA's NSSDC Master Catalog

Two Line Element Set (TLE):
1 12976U 81116B   18321.53135295 -.00000001  00000-0  12214-3 0  9995
2 12976  73.9829 349.4074 0095267 286.0487 186.5702 12.28364740657992
Source of the keplerian elements: AFSPC